Regional Weather Roundup
Issued by NWS Dallas/Fort Worth, TX

Home | Current Version | Previous Version | Text Only | Print | Product List | Glossary On
Versions: 1 2 3 4 5 6 7 8 9 10 11 12 13 14 15 16 17 18 19 20 21 22 23 24 25 26 27 28 29 30 31 32 33 34 35 36 37 38 39 40 41 42 43 44 45 46 47 48 49 50
311
ASUS44 KFWD 212315
RWRFWD
NORTH TEXAS HOURLY WEATHER ROUNDUP
NATIONAL WEATHER SERVICE FORT WORTH TX
600 PM CDT MON OCT 21 2019

NOTE: "FAIR" INDICATES FEW OR NO CLOUDS BELOW 12,000 FEET WITH NO
SIGNIFICANT WEATHER AND/OR OBSTRUCTIONS TO VISIBILITY.

TXZ118-119-220000-
DALLAS/FORT WORTH METROPLEX

CITY           SKY/WX    TMP DP  RH WIND       PRES   REMARKS
DFW AIRPORT    CLEAR     71  30  21 N8        29.91R
DALLAS LOVE    CLEAR     73  33  23 N5        29.92R
FTW MEACHAM    CLEAR     70  31  23 NW5       29.93R
DAL-EXECUTIVE  CLEAR     70  34  26 NW8       29.92R
FTW-ALLIANCE   CLEAR     72  28  19 NW7       29.93R
FTW-NAS-JRB    CLEAR     73  27  18 N7        29.93R
FTW-SPINKS     CLEAR     72  32  23 NW6       29.95R
ARLINGTON      CLEAR     72  30  21 W6        29.93R
GRAND PRAIRIE  CLEAR     72  30  21 W6        29.94R
ADDISON        CLEAR     72  32  23 N6        29.93R
MESQUITE       CLEAR     72  34  25 NW6       29.93R
LANCASTER      CLEAR     70  37  30 N3        29.93R
$$

TXZ091>094-102>105-117-120-121-131>134-220000-
NORTH CENTRAL TEXAS

CITY           SKY/WX    TMP DP  RH WIND       PRES   REMARKS
SHRMAN/DENISON NOT AVBL
GAINESVILLE    CLEAR     68  28  22 NW6       29.95R
BOWIE          CLEAR     69  25  19 W7        29.95R
BRIDGEPORT     CLEAR     70  27  19 NW5       29.96R
DECATUR        CLEAR     69  23  17 NW6       29.94R
DENTON         CLEAR     71  29  21 NW9       29.93R
MCKINNEY       CLEAR     70  35  27 NW5       29.92R
BONHAM         CLEAR     68  37  31 NW6       29.92R
GREENVILLE     CLEAR     72  34  25 W5        29.92S
ROCKWALL       CLEAR     70  36  29 CALM      29.92S
TERRELL        CLEAR     71  34  25 NW9       29.92R
WAXAHACHIE     CLEAR     70  37  29 NW7       29.94R
CLEBURNE       CLEAR     72  32  23 NW5       29.95R
GRANBURY       CLEAR     73  31  21 CALM      29.95S
$$

TXZ083>090-098>101-113>116-127>130-139>142-154-155-220000-
WESTERN NORTH TEXAS

CITY           SKY/WX    TMP DP  RH WIND       PRES   REMARKS
WICHITA FALLS  CLEAR     69  21  16 NW14      29.94R
WF-KICKAPOO    CLEAR     70  23  16 NW13G22   29.97R
VERNON         SUNNY     72  21  15 W10       29.96R
ABILENE        SUNNY     72  18  13 VRB5      29.94F
ABILENE-DYESS  SUNNY     71  19  14 N7        29.93S
GRAHAM         SUNNY     70  26  19 NW9       29.95R
BRECKENRIDGE   SUNNY     73  22  14 MISG      29.95R HAZE
CISCO          SUNNY     72  18  13 W9        29.95R
EASTLAND       SUNNY     69  26  20 N7        29.94S
RANGER         SUNNY     69  26  20 NW5       29.95S
MINERAL WELLS  CLEAR     71  26  18 NW13      29.93R
STEPHENVILLE   SUNNY     71  27  19 CALM      29.97S
COMANCHE       SUNNY     71  29  21 NW3       29.95S
BROWNWOOD      SUNNY     73  21  14 NW3       29.94S
COLEMAN        SUNNY     74  20  13 CALM      29.94S
BRADY          SUNNY     73  19  13 N6        29.94S
$$

TXZ143>147-156>162-174-175-220000-
CENTRAL TEXAS

CITY           SKY/WX    TMP DP  RH WIND       PRES   REMARKS
WACO           CLEAR     72  38  29 N8        29.92R
WACO-TSTC      CLEAR     73  36  25 NW8       29.91S
WACO-MCGREGOR  CLEAR    N/A N/A N/A N7        29.92S
HILLSBORO      CLEAR     71  39  30 NW6       29.92S
CORSICANA      CLEAR     72  39  30 N8        29.92S
MEXIA          CLEAR     73  38  28 NW7       29.89S
HEARNE         CLEAR     75  40  27 N8        29.89R
CAMERON        CLEAR     74  38  26 N7        29.89S
TEMPLE         CLEAR     73  36  25 N9          N/A
KILLEEN        SUNNY     73  30  19 N7        29.91R
FORT HOOD      SUNNY     73  32  21 N7        29.92R
GATESVILLE     SUNNY     73  34  23 N6        29.94R
HAMILTON       SUNNY     72  30  21 N5        29.95R
LAMPASAS       SUNNY     73  31  21 N3        29.92R
$$

TXZ095>097-106>112-122>126-135>138-148>153-164>167-220000-
EAST TEXAS

CITY           SKY/WX    TMP DP  RH WIND       PRES   REMARKS
PARIS          CLEAR     68  39  34 W8        29.91R
SULPHUR SPRNGS CLEAR     70  40  33 NW6       29.94R
MOUNT PLEASANT CLEAR     69  40  34 W6        29.91R
GILMER         CLOUDY    68  40  35 NW5       29.89S
MINEOLA        CLEAR     68  39  34 N6        29.90S
TYLER          CLEAR     72  36  26 N8        29.89S
LONGVIEW       CLEAR     70  43  37 NW8       29.87S
MARSHALL       CLEAR     70  42  36 NW7       29.89S
ATHENS         CLEAR     72  36  26 N5        29.89S
PALESTINE      CLEAR     71  38  30 NW6       29.90R
JACKSONVILLE   CLEAR     70  42  36 NW3       29.91R
HENDERSON      CLEAR     71  41  34 N3        29.89S
CENTER         CLEAR     71  44  37 NW6       29.87R
NACOGDOCHES    CLEAR     71  48  43 NW7       29.87S
LUFKIN         CLEAR     74  46  36 N6        29.87R
$$

SUPPLEMENTAL OBSERVATIONS (NWS FORT WORTH AREA)

CITY           SKY/WX    TMP DP  RH WIND       PRES   REMARKS
CADDO GRASSLND   N/A     68  36  30 W3          N/A
LBJ GRASSLAND    N/A     72  27  18 NW6         N/A
COMANCHE         N/A     72  32  23 NE2         N/A
MCGREGOR         N/A     73  32  21 N3          N/A
LAKE LIMESTONE   N/A     73  37  27 N5          N/A
$$

SUPPLEMENTAL OBSERVATIONS (NWS NORMAN AREA)

CITY           SKY/WX    TMP DP  RH WIND       PRES   REMARKS
GOODLETT         N/A     69  20  16 NW6       29.95
ODELL            N/A     69  21  16 W8        29.96
CROWELL          N/A     70  24  17 CALM      29.96
KNOX CITY        N/A     71  24  17 NW2       29.95
SEYMOUR          N/A     69  24  17 N2        29.95
MILLERS CREEK    N/A     72  25  17 N5G13       N/A
$$

SUPPLEMENTAL OBSERVATIONS (NWS SAN ANGELO AREA)

CITY           SKY/WX    TMP DP  RH WIND       PRES   REMARKS
WEINERT          N/A     73  22  15 CALM      29.96
HASKELL          N/A     70  24  17 NE2       29.95
THROCKMORTON     N/A     70  29  22 W6        29.96
STAMFORD         N/A     69  24  18 NE6       29.96
CLYDE            N/A     68  24  19 NE7       29.96
HAMBY            N/A     72  23  16 N5          N/A
IVIE RESERVOIR   N/A     75  21  13 E5          N/A
COLORADO BEND    N/A     75  30  19 N3          N/A
$$

SUPPLEMENTAL OBSERVATIONS (NWS SHREVEPORT AREA)

CITY           SKY/WX    TMP DP  RH WIND       PRES   REMARKS
TEXARKANA        N/A     68  45  42 W2          N/A
LINDEN           N/A     70  39  32 NW5         N/A
CADDO LAKE       N/A     63  52  67 CALM        N/A
N SABINE NF      N/A     73  48  40 MISG        N/A
$$

SUPPLEMENTAL OBSERVATIONS ARE A COLLECTION OF AUTOMATED INSTRUMENTS
THAT ARE MAINTAINED BY A VARIETY OF FEDERAL AND STATE AGENCIES.
CERTAIN ELEMENTS...SUCH AS HUMIDITY VALUES AND SUSTAINED WIND
SPEEDS...MAY BE APPROXIMATED.





USA.gov is the U.S. government's official web portal to all federal, state and local government web resources and services.